Location: Agendoh
(31.0664°N, 8.9343°W)
Time: 10:56:32
(UTC+00:00)

Cosmos 1151 Rocket - Pass Details

Date: 09 July 2022
Orbit: 592 x 614 km, 82.5° (Epoch: 07 August)

Event Time Altitude Azimuth Distance (km) Brightness Sun altitude
Rises 01:33:22 0° 4° (N) 2,885 7.5 -35.1°
Reaches altitude 10° 01:35:44 10° 12° (NNE) 1,976 6.4 -35.0°
Enters shadow 01:37:19 20° 25° (NNE) 1,422 5.5 -34.9°
